[[{"header":{"parameterUnit":"m.s-1","parameterCategory":1,"la1":30.2991,"la2":30.254,"lo1":-89.0895,"lo2":-89.0444,"dy":0.0017,"dx":0.0017,"nx":28,"ny":28,"refTime":"2024-08-04T09:00:00:Z","depth":0,"parameterNumber":2,"parameterNumberName":"U-component_of_WINDS"},"data":[0,0,0,0,0,0,0,0,0,0,0,0,0,0,0,0,0,0,0,0,0,0,0,0,0,0,0,0,0,0,0,0,0,0,0,0,0,0,0,0,0,0,0,0,0,0,0,0,0,0,0,0,0,0,0,0,0,0,-1.2394,-1.2393,0,-1.2305,-1.2304,-1.2303,-1.2234,-1.2234,-1.2233,-1.2233,-1.2137,-1.2135,-1.2133,0,0,0,0,0,0,0,0,0,0,0,0,0,-1.2499,-1.2498,-1.2394,-1.2393,-1.2392,-1.2305,-1.2304,-1.2303,-1.2235,-1.2234,-1.2233,-1.2232,-1.2138,-1.2136,-1.2133,0,0,0,0,0,0,0,0,0,0,0,0,0,-1.2436,-1.2497,-1.2394,-1.2347,-1.2342,-1.2306,-1.2304,-1.2303,-1.2235,-1.2234,-1.2233,-1.2232,-1.2139,-1.2136,-1.2133,-1.2134,0,0,-1.2124,-1.2123,0,0,0,0,0,0,0,0,-1.244,-1.2433,-1.2355,-1.2351,-1.2345,-1.228,-1.2306,-1.2246,-1.2235,-1.2275,-1.2233,-1.2231,-1.2185,-1.2178,-1.2164,-1.213,-1.2126,-1.2124,-1.2122,-1.2121,-1.212,0,0,0,0,0,0,0,-1.2445,-1.2436,-1.2359,-1.2354,-1.2348,-1.2329,-1.2319,-1.2295,-1.2237,-1.2272,-1.2267,-1.2257,-1.2182,-1.2167,-1.2161,-1.2124,-1.2124,-1.2121,-1.212,-1.2118,-1.2086,-1.2086,0,0,0,0,0,0,-1.2457,-1.244,-1.2362,-1.2356,-1.2391,-1.2328,-1.2317,-1.2302,-1.2237,-1.2226,-1.2258,-1.2255,-1.2172,-1.2165,-1.2157,-1.2154,-1.2121,-1.2118,-1.2116,-1.2085,-1.2086,-1.2087,0,0,0,0,0,0,-1.2459,-1.2451,-1.2365,-1.2397,-1.2384,-1.2327,-1.2311,-1.2301,-1.2285,-1.2227,-1.2215,-1.2254,-1.2171,-1.2162,-1.2141,-1.215,-1.2117,-1.2114,-1.2084,-1.2085,-1.2086,-1.2147,0,0,0,0,0,0,-1.2463,-1.2452,-1.2453,-1.2397,-1.2383,-1.2351,-1.2311,-1.2299,-1.2281,-1.2275,-1.2219,-1.2209,-1.217,-1.2145,-1.2138,-1.2145,-1.2112,-1.2083,-1.2084,-1.2086,-1.2144,-1.2151,-1.2156,0,0,0,0,0,-1.2467,-1.2473,-1.2453,-1.2444,-1.2383,-1.2352,-1.2344,-1.23,-1.2282,-1.2282,-1.2244,-1.2211,-1.215,-1.2144,-1.2135,-1.2141,-1.2082,-1.2084,-1.2086,-1.2142,-1.2149,-1.2156,0,0,0,0,0,0,-1.2529,-1.2465,-1.2442,-1.2431,-1.2398,-1.2341,-1.2339,-1.2309,-1.2279,-1.2275,-1.222,-1.2208,-1.2193,-1.2165,-1.2159,-1.2138,-1.2112,-1.2112,-1.2157,-1.2164,-1.217,-1.2176,-1.2109,0,0,0,0,0,-1.2542,-1.2524,-1.2468,-1.2463,-1.2448,-1.2397,-1.2381,-1.235,-1.2313,-1.2298,-1.2259,-1.2223,-1.2195,-1.2178,-1.215,-1.214,-1.2126,-1.214,-1.2146,-1.2151,-1.2151,-1.2143,-1.2148,-1.2093,-1.2093,-1.2093,0,0,-1.2568,-1.253,-1.2522,-1.2475,-1.2445,-1.2426,-1.2385,-1.2366,-1.2351,-1.2295,-1.2273,-1.2243,-1.2198,-1.2183,-1.2174,-1.2159,-1.2164,-1.2154,-1.2158,-1.2156,-1.2146,-1.2151,-1.2156,-1.2095,-1.2094,-1.2094,0,0,-1.2604,-1.2575,-1.2567,-1.2539,-1.2496,-1.2462,-1.246,-1.2407,-1.2386,-1.2363,-1.232,-1.23,-1.2255,-1.2225,-1.2204,-1.2229,-1.2197,-1.2221,-1.2252,-1.2244,-1.2248,-1.2252,-1.226,-1.2263,-1.2222,-1.2222,-1.2222,0,-1.2641,-1.2612,-1.2567,-1.2551,-1.2531,-1.2481,-1.2472,-1.2446,-1.2395,-1.2381,-1.2366,-1.2307,-1.2274,-1.225,-1.2257,-1.2242,-1.2236,-1.2227,-1.2252,-1.2255,-1.2257,-1.2264,-1.2267,-1.2226,-1.2225,-1.2225,-1.2225,0,-1.2659,-1.2639,-1.2638,-1.2591,-1.2571,-1.2559,-1.251,-1.2495,-1.2466,-1.2433,-1.241,-1.2369,-1.2331,-1.2323,-1.2294,-1.2295,-1.2287,-1.2262,-1.2234,-1.2267,-1.2272,-1.2274,-1.223,-1.2229,-1.2228,-1.2227,0,0,-1.2731,-1.2661,-1.2661,-1.2639,-1.2588,-1.257,-1.2555,-1.252,-1.2507,-1.2473,-1.2458,-1.2421,-1.2398,-1.2374,-1.2341,-1.2334,-1.2356,-1.231,-1.2308,-1.2319,-1.2353,-1.2371,-1.2375,-1.2335,-1.2335,-1.2335,-1.2356,0,-1.2759,-1.2731,-1.269,-1.2674,-1.2654,-1.2606,-1.2593,-1.2559,-1.2528,-1.2505,-1.247,-1.2444,-1.2417,-1.2402,-1.2393,-1.2355,-1.2362,-1.2353,-1.2318,-1.2317,-1.233,-1.2378,-1.2397,-1.2419,-1.2358,-1.2358,-1.2359,0,-1.2787,-1.2758,-1.2741,-1.2691,-1.2681,-1.267,-1.2633,-1.2613,-1.2573,-1.255,-1.2524,-1.2489,-1.2468,-1.2444,-1.2414,-1.241,-1.2393,-1.2372,-1.2371,-1.2365,-1.2339,-1.2372,-1.2424,-1.2428,-1.2362,-1.2362,-1.2361,0,-1.2841,-1.2797,-1.2781,-1.2763,-1.2705,-1.2698,-1.2673,-1.2632,-1.2613,-1.2581,-1.2567,-1.2533,-1.2514,-1.2487,-1.2442,-1.2429,-1.2417,-1.2389,-1.2396,-1.2398,-1.2395,-1.2396,-1.2445,-1.2387,-1.2386,-1.2386,-1.2386,0,-1.2875,-1.2866,-1.2804,-1.2794,-1.2782,-1.2735,-1.2723,-1.2694,-1.2658,-1.264,-1.2596,-1.258,-1.2523,-1.25,-1.2465,-1.2444,-1.2436,-1.2416,-1.2407,-1.242,-1.2422,-1.2407,-1.2404,-1.2387,-1.2387,-1.2387,-1.2387,0,-1.2933,-1.2891,-1.287,-1.2816,-1.2803,-1.2796,-1.2749,-1.2737,-1.2704,-1.2682,-1.2673,-1.2621,-1.2591,-1.2544,-1.25,-1.2476,-1.2462,-1.2447,-1.2476,-1.247,-1.248,-1.2479,-1.252,-1.2522,-1.2464,-1.2465,-1.2465,0,-1.2957,-1.2949,-1.2895,-1.2881,-1.2858,-1.2835,-1.2816,-1.2769,-1.275,-1.2704,-1.2697,-1.2664,-1.2635,-1.2589,-1.2545,-1.2511,-1.2494,-1.2511,-1.2489,-1.2502,-1.2493,-1.2494,-1.2492,-1.2516,-1.2517,-1.2518,-1.2518,0,-1.3004,-1.2984,-1.2959,-1.2926,-1.2905,-1.2877,-1.2846,-1.2836,-1.2782,-1.2763,-1.2733,-1.271,-1.2666,-1.2633,-1.2593,-1.2565,-1.2532,-1.2526,-1.2525,-1.2538,-1.2554,-1.2544,-1.2489,-1.2525,-1.2524,-1.2524,-1.2523,-1.2523,-1.3044,-1.3035,-1.2996,-1.2969,-1.2941,-1.2914,-1.29,-1.2865,-1.284,-1.2801,-1.2774,-1.2745,-1.2704,-1.2647,-1.2621,-1.2596,-1.2582,-1.2582,-1.2581,-1.2582,-1.2586,-1.256,-1.2589,-1.2589,-1.2588,-1.2588,-1.2588,0,-1.3088,-1.3061,-1.3037,-1.2996,-1.2975,-1.2948,-1.2912,-1.2896,-1.2871,-1.2837,-1.281,-1.2774,-1.2742,-1.2697,-1.2661,-1.265,-1.2634,-1.2642,-1.2642,-1.2636,-1.2601,-1.2605,-1.2656,-1.2656,-1.2656,-1.2656,-1.2656,-1.2656,-1.3109,-1.3091,-1.3066,-1.3034,-1.3006,-1.2979,-1.2961,-1.2935,-1.2907,-1.287,-1.2844,-1.2815,-1.2775,-1.2736,-1.2705,-1.2692,-1.2681,-1.2694,-1.2676,-1.2645,-1.2638,-1.2632,-1.2635,-1.2692,-1.2692,-1.2712,-1.2712,-1.2712]},{"header":{"parameterUnit":"m.s-1","parameterCategory":1,"la1":30.2991,"la2":30.254,"lo1":-89.0895,"lo2":-89.0444,"dy":0.0017,"dx":0.0017,"nx":28,"ny":28,"refTime":"2024-08-04T09:00:00:Z","depth":0,"parameterNumber":3,"parameterNumberName":"V-component_of_WINDS"},"data":[0,0,0,0,0,0,0,0,0,0,0,0,0,0,0,0,0,0,0,0,0,0,0,0,0,0,0,0,0,0,0,0,0,0,0,0,0,0,0,0,0,0,0,0,0,0,0,0,0,0,0,0,0,0,0,0,0,0,0.713,0.713,0,0.7135,0.7135,0.7135,0.708,0.7078,0.7077,0.7075,0.7078,0.708,0.7081,0,0,0,0,0,0,0,0,0,0,0,0,0,0.7072,0.7074,0.713,0.713,0.713,0.7135,0.7135,0.7135,0.708,0.7078,0.7076,0.7074,0.7078,0.708,0.7081,0,0,0,0,0,0,0,0,0,0,0,0,0,0.7089,0.7074,0.713,0.7103,0.7101,0.7135,0.7135,0.7135,0.708,0.7078,0.7076,0.7074,0.7077,0.7079,0.7082,0.7141,0,0,0.7088,0.7089,0,0,0,0,0,0,0,0,0.7088,0.7092,0.7107,0.7105,0.7103,0.7104,0.7116,0.7137,0.7081,0.7088,0.7075,0.7072,0.7089,0.709,0.7096,0.7141,0.7141,0.7089,0.709,0.7091,0.7092,0,0,0,0,0,0,0,0.7087,0.7091,0.7132,0.7108,0.7105,0.7091,0.7091,0.7119,0.7101,0.7087,0.7083,0.7085,0.7087,0.7094,0.7095,0.7141,0.7089,0.7091,0.7092,0.7093,0.7235,0.7238,0,0,0,0,0,0,0.709,0.709,0.7132,0.7132,0.709,0.7094,0.7094,0.7106,0.7101,0.7098,0.7087,0.7082,0.7091,0.7093,0.7095,0.7164,0.7091,0.7093,0.7094,0.7233,0.7236,0.7239,0,0,0,0,0,0,0.7089,0.7094,0.7132,0.711,0.7114,0.7097,0.7112,0.7107,0.7114,0.71,0.7096,0.7097,0.7089,0.7092,0.713,0.7163,0.7094,0.7096,0.723,0.7234,0.7237,0.7302,0,0,0,0,0,0,0.7088,0.7094,0.7117,0.7111,0.7115,0.7167,0.7114,0.7109,0.7118,0.7112,0.7109,0.7106,0.7088,0.7127,0.7132,0.7165,0.7098,0.7227,0.7232,0.7236,0.7297,0.7308,0.7317,0,0,0,0,0,0.7086,0.7134,0.7118,0.7124,0.7143,0.7169,0.7171,0.715,0.7121,0.7143,0.7135,0.7106,0.7159,0.7131,0.7137,0.7171,0.7225,0.723,0.7236,0.7293,0.7306,0.7317,0,0,0,0,0,0,0.7143,0.7133,0.7115,0.7164,0.7168,0.716,0.7187,0.7164,0.7176,0.717,0.7142,0.7142,0.7184,0.7181,0.7151,0.7228,0.7187,0.7194,0.7228,0.724,0.725,0.7249,0.71,0,0,0,0,0,0.7162,0.7184,0.7174,0.7218,0.7221,0.7204,0.7214,0.7198,0.72,0.7202,0.7195,0.7199,0.7216,0.7228,0.7244,0.7297,0.7295,0.7323,0.7333,0.7341,0.7347,0.7375,0.7387,0.7257,0.7257,0.7257,0,0,0.72,0.7197,0.7213,0.7229,0.723,0.7254,0.7206,0.7232,0.7249,0.7205,0.7241,0.7237,0.7239,0.7285,0.7305,0.7284,0.7383,0.7348,0.7355,0.7356,0.7382,0.7394,0.7405,0.726,0.726,0.7259,0,0,0.7281,0.7282,0.7318,0.7321,0.7324,0.7312,0.7321,0.7317,0.7313,0.7348,0.7316,0.7336,0.7366,0.7369,0.7375,0.7459,0.7432,0.7464,0.7515,0.7543,0.7553,0.7562,0.7591,0.7602,0.747,0.7471,0.7471,0,0.7328,0.7362,0.734,0.7369,0.7377,0.734,0.7376,0.738,0.7387,0.7393,0.737,0.7408,0.7407,0.7453,0.7473,0.7479,0.7488,0.7464,0.7554,0.7562,0.757,0.7598,0.7609,0.7474,0.7474,0.7474,0.7473,0,0.7419,0.7444,0.7473,0.7482,0.7493,0.7526,0.7508,0.7522,0.7505,0.7496,0.7533,0.7531,0.7545,0.7555,0.7538,0.7598,0.7585,0.7558,0.7516,0.7587,0.7612,0.7623,0.748,0.7479,0.7477,0.7476,0,0,0.7535,0.7533,0.7544,0.7547,0.7548,0.7567,0.7598,0.7612,0.7625,0.7632,0.7657,0.7684,0.766,0.7666,0.7649,0.7674,0.774,0.7643,0.7643,0.7661,0.7806,0.7826,0.7838,0.7723,0.7725,0.7727,0.7806,0,0.7614,0.7667,0.7648,0.7702,0.7724,0.769,0.7717,0.7721,0.7714,0.7731,0.7723,0.7743,0.7709,0.7712,0.7735,0.7727,0.7768,0.7721,0.7745,0.7746,0.7745,0.7852,0.7872,0.7947,0.7815,0.7817,0.7818,0,0.7712,0.7724,0.778,0.7778,0.7787,0.7812,0.7824,0.7841,0.7844,0.7837,0.7845,0.7824,0.7854,0.7813,0.7854,0.7822,0.7831,0.7829,0.7831,0.7831,0.7786,0.7854,0.797,0.7981,0.7834,0.7833,0.7832,0,0.779,0.782,0.7858,0.7862,0.7861,0.7879,0.7879,0.788,0.7891,0.7901,0.7908,0.7922,0.7929,0.794,0.7923,0.7895,0.7966,0.7924,0.796,0.7961,0.7976,0.7975,0.8094,0.7984,0.7984,0.7983,0.7983,0,0.7879,0.7915,0.7893,0.7916,0.7955,0.7934,0.7973,0.7969,0.7971,0.7992,0.7964,0.7985,0.7961,0.7979,0.7966,0.8002,0.8005,0.8,0.7996,0.8002,0.8003,0.8007,0.8001,0.7986,0.7986,0.7985,0.7985,0,0.7972,0.7959,0.7998,0.7994,0.7994,0.8023,0.8019,0.804,0.8032,0.8059,0.8065,0.8051,0.8071,0.8056,0.8075,0.8066,0.8113,0.8102,0.8112,0.8109,0.8146,0.8143,0.8271,0.8286,0.8167,0.8169,0.817,0,0.8029,0.8056,0.8055,0.8068,0.807,0.8091,0.8102,0.8082,0.8094,0.8101,0.8121,0.8139,0.8152,0.8186,0.8178,0.8193,0.8181,0.8226,0.8183,0.8189,0.8181,0.8179,0.8182,0.8234,0.8235,0.8236,0.8237,0,0.8131,0.8124,0.814,0.8155,0.8169,0.818,0.8188,0.82,0.818,0.8195,0.8216,0.8226,0.8247,0.8265,0.8278,0.8277,0.8254,0.8251,0.826,0.8266,0.827,0.8268,0.8134,0.8247,0.8246,0.8246,0.8245,0.8245,0.8207,0.823,0.8233,0.8253,0.8257,0.8266,0.8285,0.828,0.8297,0.8313,0.83,0.8325,0.8328,0.8343,0.8345,0.8364,0.8346,0.8359,0.8363,0.8366,0.8371,0.8268,0.8367,0.8366,0.8366,0.8366,0.8366,0,0.8307,0.8308,0.8327,0.8339,0.8355,0.8333,0.8341,0.8356,0.8378,0.8384,0.8398,0.8422,0.844,0.8433,0.8449,0.8465,0.8455,0.847,0.8468,0.8468,0.8387,0.8377,0.8478,0.8478,0.8478,0.8478,0.8478,0.8478,0.8361,0.8398,0.8391,0.843,0.843,0.8455,0.8461,0.8469,0.8473,0.8502,0.8517,0.8513,0.8514,0.8529,0.8545,0.8542,0.8549,0.8568,0.8561,0.8485,0.8474,0.8463,0.8454,0.857,0.857,0.8641,0.8642,0.8642]}]]